| time (UTC) | temp F | wind direction | speed MPH | gust MPH | rain 1hr in | rain 24hr in | rain mn in | humidity % | barometer mb |
| 20260505101545 | 55 | 239 | 0.0 | 5.0 | 0.00 | 0.00 | 0.00 | 85 | 1014.0 |
| 20260505100032 | 55 | 238 | 3.0 | 7.0 | 0.00 | 0.00 | 0.00 | 85 | 1014.0 |
| 20260505094604 | 55 | 240 | 1.0 | 6.0 | 0.00 | 0.00 | 0.00 | 85 | 1013.8 |
| 20260505093042 | 55 | 228 | 0.0 | 0.0 | 0.00 | 0.00 | 0.00 | 85 | 1013.8 |
| 20260505091532 | 55 | 229 | 0.0 | 2.0 | 0.00 | 0.00 | 0.00 | 85 | 1013.7 |
| 20260505090044 | 55 | 360 | 4.0 | 6.0 | 0.00 | 0.00 | 0.00 | 85 | 1013.7 |
| 20260505084537 | 55 | 233 | 2.0 | 4.0 | 0.00 | 0.00 | 0.00 | 85 | 1013.6 |
| 20260505083035 | 56 | 240 | 2.0 | 5.0 | 0.00 | 0.00 | 0.00 | 85 | 1013.5 |
| 20260505081529 | 56 | 204 | 0.0 | 5.0 | 0.00 | 0.00 | 0.00 | 85 | 1013.6 |
| 20260505080037 | 56 | 360 | 0.0 | 4.0 | 0.00 | 0.00 | 0.00 | 84 | 1013.5 |
| 20260505074536 | 56 | 251 | 2.0 | 6.0 | 0.00 | 0.00 | 0.00 | 84 | 1013.5 |
| 20260505073048 | 56 | 221 | 4.0 | 7.0 | 0.00 | 0.00 | 0.00 | 84 | 1013.4 |
| 20260505071544 | 56 | 253 | 4.0 | 9.0 | 0.00 | 0.00 | 0.00 | 84 | 1013.3 |
| 20260505070033 | 56 | 194 | 5.0 | 11.0 | 0.00 | 0.00 | 0.00 | 84 | 1013.3 |
| 20260505064530 | 56 | 360 | 4.0 | 7.0 | 0.00 | 0.00 | 0.00 | 84 | 1013.2 |
| 20260505063043 | 56 | 265 | 4.0 | 6.0 | 0.00 | 0.00 | 0.00 | 84 | 1013.0 |
| 20260505061556 | 56 | 254 | 4.0 | 9.0 | 0.00 | 0.00 | 0.00 | 84 | 1013.0 |
| 20260505060028 | 56 | 263 | 3.0 | 6.0 | 0.00 | 0.00 | 0.00 | 84 | 1013.0 |
| 20260505054541 | 56 | 215 | 4.0 | 7.0 | 0.00 | 0.00 | 0.00 | 84 | 1012.9 |
| 20260505053039 | 56 | 257 | 2.0 | 9.0 | 0.00 | 0.00 | 0.00 | 84 | 1012.9 |
| 20260505051532 | 56 | 244 | 2.0 | 8.0 | 0.00 | 0.00 | 0.00 | 84 | 1012.9 |
| 20260505041607 | 57 | 247 | 5.0 | 8.0 | 0.00 | 0.00 | 0.00 | 83 | 1012.7 |
| 20260505040035 | 57 | 252 | 4.0 | 8.0 | 0.00 | 0.00 | 0.00 | 83 | 1012.6 |
| 20260505034533 | 57 | 238 | 6.0 | 10.0 | 0.00 | 0.00 | 0.00 | 83 | 1012.6 |
| 20260505033048 | 57 | 215 | 5.0 | 9.0 | 0.00 | 0.00 | 0.00 | 83 | 1012.6 |
| 20260505031538 | 57 | 266 | 4.0 | 10.0 | 0.00 | 0.00 | 0.00 | 83 | 1012.5 |
| 20260505030048 | 57 | 244 | 5.0 | 9.0 | 0.00 | 0.00 | 0.00 | 83 | 1012.3 |
| 20260505024601 | 57 | 234 | 5.0 | 9.0 | 0.00 | 0.00 | 0.00 | 83 | 1012.3 |
| 20260505023057 | 57 | 223 | 4.0 | 6.0 | 0.00 | 0.00 | 0.00 | 83 | 1012.3 |
| 20260505021549 | 57 | 215 | 5.0 | 10.0 | 0.00 | 0.00 | 0.00 | 83 | 1012.3 |
| 20260505020037 | 58 | 246 | 5.0 | 11.0 | 0.00 | 0.00 | 0.00 | 83 | 1012.3 |
| 20260505014554 | 58 | 207 | 5.0 | 9.0 | 0.00 | 0.00 | 0.00 | 83 | 1012.3 |
| 20260505013047 | 58 | 229 | 6.0 | 9.0 | 0.00 | 0.00 | 0.00 | 83 | 1012.4 |
| 20260505011542 | 58 | 267 | 5.0 | 10.0 | 0.00 | 0.00 | 0.00 | 83 | 1012.5 |
| 20260505010029 | 58 | 224 | 6.0 | 10.0 | 0.00 | 0.00 | 0.00 | 83 | 1012.7 |
| 20260505004543 | 58 | 261 | 5.0 | 9.0 | 0.00 | 0.00 | 0.00 | 82 | 1012.8 |
| 20260505003039 | 59 | 288 | 6.0 | 9.0 | 0.00 | 0.00 | 0.00 | 82 | 1012.8 |
| 20260505001531 | 59 | 269 | 6.0 | 10.0 | 0.00 | 0.00 | 0.00 | 83 | 1012.6 |
| 20260505000039 | 60 | 269 | 3.0 | 9.0 | 0.00 | 0.00 | 0.00 | 82 | 1012.7 |
| 20260504234532 | 61 | 239 | 5.0 | 12.0 | 0.00 | 0.00 | 0.00 | 81 | 1012.7 |
| 20260504233030 | 62 | 360 | 5.0 | 11.0 | 0.00 | 0.00 | 0.00 | 80 | 1012.6 |
| 20260504231542 | 62 | 292 | 1.0 | 8.0 | 0.00 | 0.00 | 0.00 | 80 | 1012.6 |
| 20260504230051 | 62 | 215 | 5.0 | 12.0 | 0.00 | 0.00 | 0.00 | 80 | 1012.6 |
| 20260504224547 | 63 | 225 | 7.0 | 13.0 | 0.00 | 0.00 | 0.00 | 79 | 1012.6 |
| 20260504223040 | 62 | 256 | 4.0 | 12.0 | 0.00 | 0.00 | 0.00 | 80 | 1012.8 |
| 20260504221557 | 63 | 286 | 1.0 | 6.0 | 0.00 | 0.00 | 0.00 | 79 | 1012.7 |
| 20260504220105 | 63 | 291 | 0.0 | 11.0 | 0.00 | 0.00 | 0.00 | 78 | 1012.7 |
| 20260504214537 | 64 | 252 | 5.0 | 11.0 | 0.00 | 0.00 | 0.00 | 78 | 1012.7 |
| 20260504213053 | 63 | 246 | 2.0 | 12.0 | 0.00 | 0.00 | 0.00 | 79 | 1012.7 |
| 20260504211544 | 64 | 300 | 6.0 | 12.0 | 0.00 | 0.00 | 0.00 | 77 | 1012.7 |
| 20260504210034 | 65 | 286 | 3.0 | 8.0 | 0.00 | 0.00 | 0.00 | 78 | 1012.6 |
| 20260504204528 | 65 | 240 | 2.0 | 9.0 | 0.00 | 0.00 | 0.00 | 77 | 1012.7 |
| 20260504203043 | 65 | 275 | 1.0 | 7.0 | 0.00 | 0.00 | 0.00 | 78 | 1012.7 |
| 20260504201538 | 65 | 254 | 3.0 | 8.0 | 0.00 | 0.00 | 0.00 | 77 | 1012.7 |
| 20260504200046 | 65 | 256 | 4.0 | 9.0 | 0.00 | 0.00 | 0.00 | 77 | 1012.7 |
| 20260504194544 | 64 | 200 | 3.0 | 8.0 | 0.00 | 0.00 | 0.00 | 78 | 1012.7 |
| 20260504193037 | 64 | 273 | 0.0 | 9.0 | 0.00 | 0.00 | 0.00 | 78 | 1012.7 |
| 20260504191535 | 63 | 254 | 4.0 | 9.0 | 0.00 | 0.00 | 0.00 | 79 | 1012.7 |
| 20260504190043 | 62 | 248 | 0.0 | 8.0 | 0.00 | 0.00 | 0.00 | 79 | 1012.8 |
| 20260504184535 | 62 | 246 | 4.0 | 10.0 | 0.00 | 0.00 | 0.00 | 80 | 1012.9 |
| 20260504183033 | 61 | 254 | 1.0 | 7.0 | 0.00 | 0.00 | 0.00 | 80 | 1013.0 |
| 20260504181546 | 60 | 227 | 3.0 | 6.0 | 0.00 | 0.00 | 0.00 | 80 | 1013.0 |
| 20260504180038 | 60 | 254 | 1.0 | 7.0 | 0.00 | 0.00 | 0.00 | 81 | 1012.8 |
| 20260504174552 | 59 | 360 | 2.0 | 6.0 | 0.00 | 0.00 | 0.00 | 81 | 1012.9 |
| 20260504173031 | 59 | 225 | 1.0 | 4.0 | 0.00 | 0.00 | 0.00 | 82 | 1012.9 |
| 20260504171544 | 58 | 243 | 2.0 | 6.0 | 0.00 | 0.00 | 0.00 | 82 | 1012.8 |